Dhahran, Saudi Arabia

1:05 AM AST on September 27, 2016 (GMT +0300)
Dhahran

Weather History for 40416 - June, 2013

Change the Weather History Date:

Tuesday, June 4, 2013

  Actual Average Record
Temperature  
Mean Temperature 90 °F -  
Max Temperature 104 °F - - ()
Min Temperature 75 °F - - ()
Cooling Degree Days 24    
Growing Degree Days 40 (Base 50)    
Moisture  
Dew Point 59 °F    
Average Humidity 37    
Maximum Humidity 66    
Minimum Humidity 7    
Precipitation  
Precipitation 0.00 in - - ()
Sea Level Pressure  
Sea Level Pressure 29.55 in    
Wind  
Wind Speed 5 mph ()    
Max Wind Speed 15 mph    
Max Gust Speed -    
Visibility 2.1 miles    
Events      
T = Trace of Precipitation, MM = Missing Value Source: Averaged Metar Reports

Daily Weather History Graph

Daily Weather History Graph

Search for Another Location

Airport or City:

Trip Planner

Search our weather history database for the weather conditions in past years. The results will help you decide how hot, cold, wet, or windy it might be!

Date:

Astronomy

Jun. 04, 2013 Rise Set
Actual Time 4:46 AM AST 6:29 PM AST
Civil Twilight 4:20 AM AST 6:54 PM AST
Nautical Twilight 3:49 AM AST 7:26 PM AST
Astronomical Twilight 3:16 AM AST 7:58 PM AST
Moon 1:43 AM AST (6/4) 2:52 PM AST (6/4)
Length of Visible Light 14h 34m
Length of Day
13h 42m
Waning Crescent, 16% of the Moon is Illuminated
Jun 4
Waning Crescent
Jun 8
New
Jun 16
First Quarter
Jun 23
Full
Jun 30
Last Quarter

Hourly Weather History & Observations

Time (AST) Temp. Heat Index Dew Point Humidity Pressure Visibility Wind Dir Wind Speed Gust Speed Precip Events Conditions
12:00 AM 81 °F - 59 °F 37% 29.51 in 2 mi 3.5 mph - -   Haze
12:00 AM 80.6 °F 81.1 °F 59.0 °F 48% 29.50 in 1.9 mi Variable 3.5 mph - N/A   Haze
1:00 AM 78.8 °F - 59.0 °F 51% 29.50 in 1.9 mi Calm Calm - N/A   Haze
2:00 AM 78.8 °F - 60.8 °F 54% 29.47 in 1.9 mi Variable 3.5 mph - N/A   Haze
3:00 AM 78 °F - 61 °F 46% 29.51 in 2 mi WNW 5.8 mph - -   Haze
3:00 AM 77.0 °F - 60.8 °F 57% 29.50 in 1.9 mi WNW 5.8 mph - N/A   Haze
4:00 AM 77.0 °F - 59.0 °F 54% 29.50 in 1.9 mi NNW 5.8 mph - N/A   Haze
5:00 AM 77.0 °F - 57.2 °F 50% 29.53 in 1.2 mi NNW 5.8 mph - N/A   Haze
6:00 AM 79 °F - 50 °F 26% 29.54 in 1 mi NW 5.8 mph - -   Widespread Dust
6:00 AM 78.8 °F - 50.0 °F 36% 29.53 in 1.2 mi NW 5.8 mph - N/A   Unknown
7:00 AM 84.2 °F - 44.6 °F 25% 29.56 in 1.6 mi NNW 8.1 mph - N/A   Clear
8:00 AM 91.4 °F - 42.8 °F 18% 29.56 in 1.6 mi Variable 3.5 mph - N/A   Clear
9:00 AM 99 °F - 41 °F 7% 29.57 in 2 mi NE 4.6 mph - -   Widespread Dust
9:00 AM 98.6 °F - 41.0 °F 14% 29.56 in 1.6 mi NE 4.6 mph - N/A   Clear
10:00 AM 96.8 °F 97.1 °F 60.8 °F 30% 29.56 in 0.9 mi ESE 8.1 mph - N/A   Clear
11:00 AM 98.6 °F 101.0 °F 64.4 °F 32% 29.56 in 0.9 mi ESE 15.0 mph - N/A   Widespread Dust
12:00 PM 100 °F - 52 °F 12% 29.58 in 1 mi East 15.0 mph - -   Blowing Sand
12:00 PM 100.4 °F - 51.8 °F 20% 29.56 in 0.9 mi East 15.0 mph - N/A   Widespread Dust
1:00 PM 102.2 °F 104.2 °F 62.6 °F 27% 29.56 in 0.6 mi East 9.2 mph - N/A   Clear
2:00 PM 102.2 °F 100.9 °F 55.4 °F 21% 29.56 in 0.9 mi ENE 9.2 mph - N/A   Clear
3:00 PM 102 °F - 55 °F 13% 29.56 in 2 mi East 9.2 mph - -   Widespread Dust
3:00 PM 102.2 °F 100.9 °F 55.4 °F 21% 29.56 in 1.6 mi East 9.2 mph - N/A   Clear
4:00 PM 100.4 °F 98.4 °F 53.6 °F 21% 29.53 in 3.1 mi East 6.9 mph - N/A   Clear
5:00 PM 96.8 °F 100.7 °F 66.2 °F 37% 29.56 in 3.1 mi East 5.8 mph - N/A   Clear
6:00 PM 93 °F - 72 °F 40% 29.57 in 3 mi ENE 6.9 mph - -   Haze
6:00 PM 93.2 °F 100.5 °F 71.6 °F 49% 29.56 in 3.1 mi ENE 6.9 mph - N/A   Haze
7:00 PM 89.6 °F 102.2 °F 77.0 °F 66% 29.56 in 3.1 mi NE 5.8 mph - N/A   Haze
8:00 PM 89.6 °F 102.2 °F 77.0 °F 66% 29.59 in 3.7 mi NNE 5.8 mph - N/A   Clear
9:00 PM 87 °F - 75 °F 60% 29.61 in 4 mi NNE 3.5 mph - -   Haze
9:00 PM 87.8 °F 97.6 °F 75.2 °F 66% 29.59 in 3.7 mi NNE 3.5 mph - N/A   Clear
10:00 PM 86.0 °F 90.4 °F 69.8 °F 58% 29.59 in 4.3 mi Variable 2.3 mph - N/A   Clear